Weather History for Fairfield, IL

Change the Weather History Date:

Saturday, October 5, 2013

  Actual Average (KMVN) Record (KMVN)
Temperature  
Mean Temperature 74 °F -  
Max Temperature 80 °F 70 °F 91 °F (2007)
Min Temperature 68 °F 47 °F 32 °F (1999)
Cooling Degree Days 9    
Growing Degree Days 24 (Base 50)    
Moisture  
Dew Point 66 °F    
Average Humidity 81    
Maximum Humidity 83    
Minimum Humidity 65    
Precipitation  
Precipitation 1.16 in - - ()
Sea Level Pressure  
Sea Level Pressure 29.96 in    
Wind  
Wind Speed 6 mph (South)    
Max Wind Speed 17 mph    
Max Gust Speed 33 mph    
Visibility 10 miles    
Events Rain , Thunderstorm    
Averages and records for this station are not official NWS values.
T = Trace of Precipitation, MM = Missing Value Source: NWS Daily Summary

Daily Weather History Graph

Daily Weather History Graph

Search for Another Location

Airport:

Trip Planner

Search our weather history database for the weather conditions in past years. The results will help you decide how hot, cold, wet, or windy it might be!

Date:

Astronomy

Oct. 05, 2013 Rise Set
Actual Time 6:53 AM CDT 6:29 PM CDT
Civil Twilight 6:26 AM CDT 6:56 PM CDT
Nautical Twilight 5:56 AM CDT 7:26 PM CDT
Astronomical Twilight 5:25 AM CDT 7:57 PM CDT
Moon 7:31 AM CDT (10/5) 6:50 PM CDT (10/5)
Length of Visible Light 12h 29m
Length of Day
11h 36m
New Moon, 1% of the Moon is Illuminated
Oct 5
New Moon
Oct 11
First Quarter
Oct 18
Full
Oct 26
Last Quarter
Nov 3
New

Hourly Weather History & Observations

Time (CDT) Temp. Heat Index Dew Point Humidity Pressure Visibility Wind Dir Wind Speed Gust Speed Precip Events Conditions
12:15 AM 73.4 °F - 68.0 °F 83% 30.00 in 10.0 mi South 5.8 mph - N/A   Scattered Clouds
12:35 AM 73.4 °F - 68.0 °F 83% 30.00 in 10.0 mi South 4.6 mph - N/A   Mostly Cloudy
12:55 AM 73.4 °F - 68.0 °F 83% 30.00 in 10.0 mi South 6.9 mph - N/A   Scattered Clouds
1:15 AM 73.4 °F - 66.2 °F 78% 30.00 in 10.0 mi South 4.6 mph - N/A   Clear
1:35 AM 73.4 °F - 66.2 °F 78% 30.00 in 10.0 mi South 5.8 mph - N/A   Clear
1:55 AM 73.4 °F - 66.2 °F 78% 30.00 in 10.0 mi South 4.6 mph - N/A   Clear
2:15 AM 73.4 °F - 66.2 °F 78% 30.00 in 10.0 mi South 3.5 mph - N/A   Clear
2:35 AM 71.6 °F - 66.2 °F 83% 30.00 in 10.0 mi South 4.6 mph - N/A   Clear
2:55 AM 71.6 °F - 66.2 °F 83% 30.00 in 10.0 mi South 4.6 mph - N/A   Clear
3:15 AM 71.6 °F - 66.2 °F 83% 29.99 in 10.0 mi South 4.6 mph - N/A   Scattered Clouds
3:35 AM 71.6 °F - 66.2 °F 83% 29.99 in 10.0 mi South 4.6 mph - N/A   Mostly Cloudy
3:55 AM 71.6 °F - 66.2 °F 83% 29.99 in 7.0 mi South 3.5 mph - N/A   Scattered Clouds
4:15 AM 71.6 °F - 66.2 °F 83% 29.99 in 10.0 mi Calm Calm - N/A   Clear
4:35 AM 71.6 °F - 66.2 °F 83% 29.99 in 10.0 mi Calm Calm - N/A   Scattered Clouds
4:55 AM 71.6 °F - 66.2 °F 83% 29.98 in 10.0 mi SSE 3.5 mph - N/A   Scattered Clouds
5:15 AM 71.6 °F - 66.2 °F 83% 29.99 in 10.0 mi South 3.5 mph - N/A   Scattered Clouds
5:35 AM 71.6 °F - 66.2 °F 83% 29.98 in 10.0 mi South 4.6 mph - N/A   Scattered Clouds
5:55 AM 71.6 °F - 66.2 °F 83% 29.98 in 10.0 mi South 4.6 mph - N/A   Scattered Clouds
6:15 AM 71.6 °F - 66.2 °F 83% 29.98 in 10.0 mi South 3.5 mph - N/A   Mostly Cloudy
6:35 AM 71.6 °F - 66.2 °F 83% 29.98 in 10.0 mi South 3.5 mph - N/A   Mostly Cloudy
6:55 AM 73.4 °F - 66.2 °F 78% 29.99 in 10.0 mi South 5.8 mph - N/A   Mostly Cloudy
7:15 AM 71.6 °F - 66.2 °F 83% 29.98 in 10.0 mi South 4.6 mph - N/A   Mostly Cloudy
7:35 AM 71.6 °F - 66.2 °F 83% 29.98 in 7.0 mi South 3.5 mph - N/A   Mostly Cloudy
7:55 AM 73.4 °F - 66.2 °F 78% 29.98 in 7.0 mi South 5.8 mph - N/A   Mostly Cloudy
8:15 AM 73.4 °F - 68.0 °F 83% 29.98 in 10.0 mi South 5.8 mph - N/A   Overcast
8:35 AM 73.4 °F - 68.0 °F 83% 29.98 in 10.0 mi South 6.9 mph - N/A   Mostly Cloudy
8:55 AM 73.4 °F - 68.0 °F 83% 29.98 in 10.0 mi South 6.9 mph - N/A   Scattered Clouds
9:15 AM 73.4 °F - 68.0 °F 83% 29.99 in 10.0 mi SSW 8.1 mph - N/A Thunderstorm Scattered Clouds
9:35 AM 73.4 °F - 68.0 °F 83% 30.00 in 10.0 mi South 8.1 mph - N/A Thunderstorm Overcast
9:55 AM 73.4 °F - 68.0 °F 83% 30.00 in 10.0 mi SSW 9.2 mph - N/A Thunderstorm Overcast
10:15 AM 73.4 °F - 66.2 °F 78% 29.99 in 10.0 mi SSW 11.5 mph - N/A Rain , Thunderstorm Light Thunderstorms and Rain
10:55 AM 73.4 °F - 68.0 °F 83% 29.99 in 10.0 mi South 11.5 mph - 0.01 in Thunderstorm Mostly Cloudy
11:15 AM 73.4 °F - 68.0 °F 83% 29.99 in 10.0 mi South 6.9 mph - N/A   Mostly Cloudy
12:15 PM 75.2 °F - 69.8 °F 83% 29.97 in 10.0 mi South 6.9 mph - N/A   Mostly Cloudy
12:35 PM 75.2 °F - 69.8 °F 83% 29.96 in 10.0 mi South 6.9 mph - N/A Thunderstorm Mostly Cloudy
12:55 PM 75.2 °F - 69.8 °F 83% 29.94 in 10.0 mi SSE 5.8 mph - N/A   Overcast
1:15 PM 78.8 °F - 69.8 °F 74% 29.93 in 10.0 mi SSE 8.1 mph - N/A   Mostly Cloudy
1:35 PM 80.6 °F 83.9 °F 69.8 °F 70% 29.92 in 10.0 mi South 16.1 mph - N/A   Mostly Cloudy
2:55 PM 80.6 °F 83.9 °F 69.8 °F 70% 29.89 in 10.0 mi South 8.1 mph - N/A Thunderstorm Mostly Cloudy
3:15 PM 80.6 °F 83.2 °F 68.0 °F 65% 29.90 in 10.0 mi SSW 9.2 mph - N/A Thunderstorm Mostly Cloudy
3:35 PM 69.8 °F - 64.4 °F 83% 29.93 in 2.5 mi West 8.1 mph 33.4 mph 0.13 in Rain , Thunderstorm Heavy Thunderstorms and Rain
3:55 PM 69.8 °F - 62.6 °F 78% 29.94 in 7.0 mi WSW 17.3 mph 24.2 mph 0.18 in Rain , Thunderstorm Light Thunderstorms and Rain
4:15 PM 68.0 °F - 62.6 °F 83% 29.92 in 10.0 mi SSW 4.6 mph - 0.20 in Rain , Thunderstorm Thunderstorms and Rain
4:35 PM 69.8 °F - 62.6 °F 78% 29.92 in 10.0 mi SSW 4.6 mph - 0.25 in Rain Rain
4:55 PM 69.8 °F - 62.6 °F 78% 29.91 in 10.0 mi SSW 5.8 mph - 0.29 in Rain Rain
5:15 PM 69.8 °F - 62.6 °F 78% 29.93 in 10.0 mi SW 6.9 mph - 0.02 in Rain , Thunderstorm Thunderstorms and Rain
5:35 PM 69.8 °F - 64.4 °F 83% 29.92 in 10.0 mi SSW 4.6 mph - 0.09 in Rain , Thunderstorm Rain
5:55 PM 69.8 °F - 64.4 °F 83% 29.92 in 10.0 mi South 4.6 mph - 0.14 in Rain Rain
6:15 PM 69.8 °F - 64.4 °F 83% 29.92 in 10.0 mi South 9.2 mph - 0.03 in Rain Rain
6:35 PM 69.8 °F - 64.4 °F 83% 29.92 in 10.0 mi South 8.1 mph - 0.04 in Rain Light Rain
6:55 PM 69.8 °F - 62.6 °F 78% 29.91 in 10.0 mi South 8.1 mph - 0.04 in   Clear
7:15 PM 68.0 °F - 62.6 °F 83% 29.90 in 10.0 mi South 5.8 mph - N/A Thunderstorm Clear
7:35 PM 68.0 °F - 62.6 °F 83% 29.89 in 10.0 mi South 4.6 mph - N/A   Clear
7:55 PM 68.0 °F - 62.6 °F 83% 29.88 in 10.0 mi South 4.6 mph - N/A   Clear
8:35 PM 68.0 °F - 62.6 °F 83% 29.88 in 10.0 mi SSE 3.5 mph - N/A   Clear
8:55 PM 68.0 °F - 62.6 °F 83% 29.88 in 10.0 mi SSE 4.6 mph - N/A   Scattered Clouds
9:35 PM 69.8 °F - 64.4 °F 83% 29.88 in 10.0 mi Calm Calm - 0.01 in Rain Light Rain
9:55 PM 69.8 °F - 64.4 °F 83% 29.90 in 7.0 mi West 4.6 mph - 0.11 in Rain , Thunderstorm Heavy Thunderstorms and Rain
10:55 PM 68.0 °F - 62.6 °F 83% 29.84 in 7.0 mi Calm Calm - 0.39 in Rain Heavy Rain